User: anonymous   Login
Location: *
(43.9900°N, 3.4811°E)
Time: 11:41:52
(UTC+00:00)
Language:

ADEOS Rocket - Orbit

View from above orbital plane
View from above orbital plane
View from above satellite
View from above satellite

Ground track
Ground track

The orbit data is extracted from the following two-line orbital elements,

1 24279U 96046C   19321.93674200 -.00000045 +00000-0 -11260-4 0  9991
2 24279 098.6968 166.0633 0299656 195.8391 302.0941 13.47132402142957
Epoch (UTC): 17 November 2019 22:28:54
Eccentricity: 0.0299656
inclination: 98.6968°
perigee height: 859 km
apogee height: 1306 km
right ascension of ascending node: 166.0633°
argument of perigee: 195.8391°
revolutions per day: 13.47132402
mean anomaly at epoch: 302.0941°
orbit number at epoch: 14295

The dashed part of the orbit path shows where the satellite is in the earth's shadow,  

DLR